HIMAWARI-9

Last updated on Tue Sep 22 2026 00:02:53 GMT+0000 (Coordinated Universal Time)

1 41836U 16064A 26264.37441016 .00000000 00000+0 00000+0 0 9993 2 41836 0.0195 148.1257 0001748 84.8827 42.7812 1.00268473 36176
UTC large
Height (km)
Speed (km/s)
/
Latitude / Longitude
Inclination (degrees)
Orbital Period (minutes)
Azimuth
Elevation
Range (km)
Doppler Factor

Next 0 passes for location: London (51.5072 / 0.1276)

No passes found over London.
HIMAWARI-9